DW8548 Weather Reports


time (UTC)temp
F
wind
direction
speed
knots
gust
knots
rain 1hr
in
rain 24hr
in
rain mn
in
humidity
%
barometer
mb
20260509061623 73 69 0.9 7.0 0.00 0.00 0.00 35 1023.5
20260509060054 74 0 0.0 2.6 0.00 0.00 0.00 35 1023.6
20260509054555 74 61 0.0 2.6 0.00 0.00 0.00 36 1023.7
20260509053056 74 208 0.0 3.5 0.00 0.00 0.00 39 1023.9
20260509051552 73 347 0.9 5.2 0.00 0.00 0.00 38 1024.0
20260509050105 73 311 0.9 3.5 0.00 0.00 0.00 40 1024.1
20260509044556 72 111 0.9 6.1 0.00 0.00 0.00 40 1024.4
20260509043058 72 0 0.9 5.2 0.00 0.00 0.00 41 1024.7
20260509041554 71 345 0.0 3.5 0.00 0.00 0.00 42 1025.1
20260509040054 71 0 0.0 3.5 0.00 0.00 0.00 43 1025.5
20260509034555 70 12 0.9 7.0 0.00 0.00 0.00 44 1025.7
20260509033311 69 174 0.9 6.1 0.00 0.00 0.00 45 1026.0
20260509031554 68 348 0.9 2.6 0.00 0.00 0.00 46 1026.3
20260509030057 67 235 0.0 3.5 0.00 0.00 0.00 49 1026.8
20260509024604 66 355 0.0 3.5 0.00 0.00 0.00 49 1026.9
20260509021554 64 283 0.9 5.2 0.00 0.00 0.00 51 1027.1
20260509014559 62 180 0.9 6.1 0.00 0.00 0.00 53 1027.1
20260509013058 61 333 0.9 4.3 0.00 0.00 0.00 54 1027.3
20260509011601 61 162 0.9 5.2 0.00 0.00 0.00 56 1027.4
20260509010237 60 344 0.9 6.1 0.00 0.00 0.00 57 1027.6
20260509010110 60 344 0.9 6.1 0.00 0.00 0.00 57 1027.6
20260509004619 59 234 0.9 4.3 0.00 0.00 0.00 60 1027.7
20260509003057 57 0 0.9 3.5 0.00 0.00 0.00 63 1027.6
20260509001557 56 15 0.9 5.2 0.00 0.00 0.00 66 1027.6
20260509000056 55 0 0.0 2.6 0.00 0.00 0.00 68 1027.5
20260508234606 54 72 0.0 2.6 0.00 0.00 0.00 69 1027.5
20260508233057 52 0 0.0 1.7 0.00 0.00 0.00 74 1027.2
20260508231558 49 0 0.0 0.9 0.00 0.00 0.00 77 1027.3
20260508230057 48 0 0.0 0.9 0.00 0.00 0.00 78 1027.1
20260508224558 47 0 0.0 1.7 0.00 0.00 0.00 79 1027.0
20260508223057 46 0 0.0 0.0 0.00 0.00 0.00 79 1026.8
20260508221553 46 0 0.0 0.0 0.00 0.00 0.00 77 1026.9
20260508220059 47 0 0.0 0.0 0.00 0.00 0.00 75 1027.1
20260508214607 48 0 0.0 0.0 0.00 0.00 0.00 74 1027.0
20260508213053 49 0 0.0 0.0 0.00 0.00 0.00 73 1026.9
20260508211558 50 0 0.0 0.0 0.00 0.00 0.00 71 1026.9
20260508210056 51 0 0.0 0.9 0.00 0.00 0.00 71 1026.7
20260508204556 50 0 0.0 0.0 0.00 0.00 0.00 70 1026.5
20260508203056 52 0 0.0 0.9 0.00 0.00 0.00 67 1026.3
20260508201557 53 314 0.0 1.7 0.00 0.00 0.00 65 1026.3
20260508200054 55 0 0.0 0.9 0.00 0.00 0.00 62 1026.1
20260508194555 56 0 0.0 1.7 0.00 0.00 0.00 60 1026.1
20260508193107 56 0 0.0 1.7 0.00 0.00 0.00 59 1026.0
20260508191557 56 0 0.0 1.7 0.00 0.00 0.00 59 1026.0
20260508190106 57 75 0.0 0.9 0.00 0.00 0.00 59 1025.9
20260508184602 57 0 0.0 1.7 0.00 0.00 0.00 58 1026.0
20260508183111 58 0 0.0 3.5 0.00 0.00 0.00 56 1026.1
20260508181552 58 0 0.0 7.8 0.00 0.00 0.00 56 1026.0
20260508174606 59 64 0.0 2.6 0.00 0.00 0.00 55 1026.0
20260508173056 59 0 0.0 5.2 0.00 0.00 0.00 54 1025.9
20260508171553 60 56 0.9 7.0 0.00 0.00 0.00 54 1026.0
20260508170104 60 0 0.9 6.1 0.00 0.00 0.00 53 1026.0
20260508164600 60 17 0.9 3.5 0.00 0.00 0.00 53 1026.1
20260508163054 60 115 0.9 2.6 0.00 0.00 0.00 53 1026.0
20260508161605 59 76 0.0 2.6 0.00 0.00 0.00 54 1025.9
20260508160056 56 0 0.0 0.9 0.00 0.00 0.00 60 1025.9
20260508154553 58 0 0.0 1.7 0.00 0.00 0.00 56 1026.0
20260508153057 59 0 0.0 0.9 0.00 0.00 0.00 54 1026.1
20260508151555 60 0 0.0 0.9 0.00 0.00 0.00 52 1026.1
20260508150055 61 0 0.0 1.7 0.00 0.00 0.00 50 1026.1
20260508144553 61 0 0.0 4.3 0.00 0.00 0.00 50 1026.1
20260508143059 61 68 0.0 2.6 0.00 0.00 0.00 53 1026.2
20260508141603 58 0 0.0 3.5 0.00 0.00 0.00 60 1026.2
20260508140054 54 0 0.0 0.0 0.00 0.00 0.00 68 1026.1
20260508134554 57 0 0.0 0.0 0.00 0.00 0.00 64 1026.3
20260508133053 58 0 0.0 0.0 0.00 0.00 0.00 63 1026.2
20260508131607 59 0 0.0 0.9 0.00 0.00 0.00 59 1026.1
20260508130057 60 0 0.0 2.6 0.00 0.00 0.00 58 1026.2
20260508124552 60 0 0.0 0.9 0.00 0.00 0.00 58 1026.1
20260508123115 61 0 0.0 1.7 0.00 0.00 0.00 57 1026.0
20260508121608 62 0 0.0 1.7 0.00 0.00 0.00 55 1025.9
20260508120107 63 109 0.0 1.7 0.00 0.00 0.00 55 1026.0
20260508114600 63 0 0.0 1.7 0.00 0.00 0.00 54 1025.9
20260508113107 63 57 0.0 3.5 0.00 0.00 0.00 54 1026.0
20260508111556 63 0 0.0 2.6 0.00 0.00 0.00 54 1025.9
20260508110106 63 0 0.0 2.6 0.00 0.00 0.00 54 1026.0
20260508104551 63 0 0.0 1.7 0.00 0.00 0.00 55 1026.0
20260508103104 64 0 0.0 0.0 0.00 0.00 0.00 52 1025.9
20260508101558 66 0 0.0 2.6 0.00 0.00 0.00 50 1025.8
20260508100059 67 0 0.0 2.6 0.00 0.00 0.00 48 1025.7
20260508094551 68 40 0.9 3.5 0.00 0.00 0.00 47 1025.6
20260508093104 68 0 0.9 3.5 0.00 0.00 0.00 48 1025.6
20260508091557 69 0 0.9 6.1 0.00 0.00 0.00 47 1025.5
20260508084558 70 0 0.0 5.2 0.00 0.00 0.00 44 1025.2
20260508083103 71 58 0.9 4.3 0.00 0.00 0.00 45 1025.2
20260508081601 71 101 0.9 7.0 0.00 0.00 0.00 44 1025.1
20260508080056 72 57 0.9 5.2 0.00 0.00 0.00 44 1025.2
20260508074554 72 78 1.7 5.2 0.00 0.00 0.00 44 1025.2
20260508073055 73 202 0.9 5.2 0.00 0.00 0.00 44 1025.2
20260508071558 74 58 0.9 9.6 0.00 0.00 0.00 44 1025.2
20260508070059 74 164 0.9 6.1 0.00 0.00 0.00 43 1025.2
20260508064555 74 104 0.9 7.0 0.00 0.00 0.00 44 1025.4
20260508063103 74 30 0.9 6.1 0.00 0.00 0.00 44 1025.5
20260508062126 74 0 0.9 8.7 0.00 0.00 0.00 44 1025.5